星链-2535 (STARLINK-2535 )

导读

STARLINK-2535是美国SpaceX公司星链(Starlink)卫星互联网项目的一员,于2021年4月29日发射入轨,属于星链计划的低轨卫星组网卫星。它作为星链星座的组成部分,旨在为全球提供高速低延迟的宽带互联网服务,填补偏远、地形复杂区域的网络覆盖缺口,同时也可支持海事、航空及应急通信等场景,是SpaceX构建全球卫星互联网的重要节点。

基本信息
目录编号:
48295
目录名称:
STARLINK-2535
国际标识:
2021-036V
轨道中心:
EARTH
卫星名称:
星链-2535
卫星全名:
星链-2535 (STARLINK-2535 )
卫星状态:
在轨 (已飞行1954 天)
发射日期:
2021-04-29 UTC
国别 :
美国 (US)
星等 :
--
轨道信息
数据来源 国际轨道数据
星历时间: 2026-09-03T23:15:55+0800
14小时前
查看轨道信息
半长轴: 6848.852km
偏心率: 0.0000912
轨道倾角: 53.160°
近地点辐角 84.717°
升交点赤经 327.424°
平近点角 275.394°
近地点: 470.09km
远地点: 471.34km
周期: 94.013分钟
每日圈数: 15.317084
详细信息
固有亮度:
5
最大亮度:
2.5
卫星平台:
Starlink V1.0
覆盖范围:
全球
运营商:
太空探索技术公司
运营商所在国:
美国
制造商(研发单位):
太空探索技术公司
制造商所在国:
美国
使用方式:
暂无
卫星简介
星链(Starlink)计划是由太空探索技术公司(SpaceX)提出的一个巨型低轨卫星互联网星座项目,计划在2019年至2024年间在太空搭建由约1.2万颗卫星组成的“星链”网络,其中1584颗将部署在地球上空550千米处的近地轨道,并从2020年开始工作。该卫星仍在工作。
2D轨道图
3D轨道图
轨道高度分析图
轨道倾角分析图
轨道综合分析图
查看轨道综合分析图
交会数据列表
事件ID 空间交会对象 最接近时刻(TCA) 交会距离 交会风险概率(CRP) 交会风险指数(CRI) 操作
CDM_260904-204104-829505-634721
2026-09-04T
20:41:16+0000
2.891 km
极远距离
1.133362E-6 低风险 0.36
CDM_260903-180304-829505-227321
2026-09-03T
18:03:48+0000
2.242 km
极远距离
1.069916E-6 低风险 0.36